sat.trackr.live / text

‹ back to catalog

HJS-9C

NORAD 68833 · 2026-091C

PAYLOAD ACTIVE UNKNOWN

§ Identity

Operator
Country
PRC
Launch date
2026-04-24
Launch site
XICLF
Launch vehicle
Mass (kg)
RCS (m²)

External: N2YO · Heavens-Above · Gunter

§ Orbital elements

Epoch: 2026-09-20T04:56:44.783232Z

Period
94.79 min
Inclination
55.0049°
Eccentricity
0.0004165
Mean motion
15.19222174 rev/d
Perigee alt
505.3 km
Apogee alt
511.1 km
Semi-major
6,886.3 km
B*
5.4346e-4
RAAN
326.5150°
Arg perigee
324.2432°
Mean anomaly
35.8308°
Rev number
2,264

§ Raw data

HJS-9C1 68833U 26091C   26263.20607388  .00011279  00000+0  54346-3 0  99932 68833  55.0049 326.5150 0004165 324.2432  35.8308 15.19222174 22646

JSON: /api/v1/satellites/68833 · /tle

For live sub-satellite position, see the globe view (requires WebGL).

§ Visibility from observer

Set your observer location to see the next 7 days of passes ≥ 10°. The values pass through the URL so the page stays shareable.

No JS? Fill the form by hand. The geolocation button needs JavaScript.